{"data":{"norad_id":56476,"epoch":"2026-05-25T02:30:00.842688Z","epoch_age_seconds":69205,"freshness":"FRESH","line1":"1 56476U 23064AE  26145.10417642 -.00000487  00000+0 -33054-4 0  9995","line2":"2 56476  69.9991 291.8578 0002783 254.3964 105.6888 14.98329351167180","mean_motion":14.98329351,"eccentricity":0.0002783,"inclination_deg":69.9991,"raan_deg":291.8578,"arg_perigee_deg":254.3964,"mean_anomaly_deg":105.6888,"bstar":-3.3054e-5,"rev_number":16718,"period_min":96.107040754353,"perigee_km":570.12365868401,"apogee_km":573.9921371642,"semimajor_km":6950.1948979241,"source":"CELESTRAK","updated_at":"2026-05-25T13:38:18.072134Z"}}